TimeWEST,TemperatureF,Dew PointF,Humidity,Sea Level PressureIn,VisibilityMPH,Wind Direction,Wind SpeedMPH,Gust SpeedMPH,PrecipitationIn,Events,Conditions,WindDirDegrees,DateUTC
12:00 AM,69.8,66.2,88,29.98,6.2,SSW,12.7,-,N/A,,Mostly Cloudy,210,2013-10-18 23:00:00
12:30 AM,69.8,66.2,88,29.98,6.2,SSW,11.5,-,N/A,,Scattered Clouds,210,2013-10-18 23:30:00
1:00 AM,70,64,77,30.00,9,SSW,11.2,,,,Mostly Cloudy,200,2013-10-19 00:00:00
1:00 AM,69.8,66.2,88,29.98,6.2,SSW,10.4,-,N/A,,Mostly Cloudy,200,2013-10-19 00:00:00
1:30 AM,69.8,66.2,88,29.98,6.2,SSW,11.5,-,N/A,,Mostly Cloudy,210,2013-10-19 00:30:00
2:00 AM,69.8,66.2,88,29.98,6.2,SSW,11.5,-,N/A,,Mostly Cloudy,210,2013-10-19 01:00:00
2:30 AM,69.8,66.2,88,29.98,6.2,SSW,11.5,-,N/A,Rain,Light Rain,200,2013-10-19 01:30:00
3:00 AM,69.8,66.2,88,29.98,6.2,SSW,11.5,-,N/A,,Mostly Cloudy,200,2013-10-19 02:00:00
3:30 AM,69.8,66.2,88,29.98,6.2,SSW,12.7,-,N/A,,Mostly Cloudy,210,2013-10-19 02:30:00
4:00 AM,71,65,76,29.99,9,SSW,13.4,,,,Partly Cloudy,200,2013-10-19 03:00:00
4:00 AM,69.8,66.2,88,29.95,6.2,SSW,11.5,-,N/A,,Mostly Cloudy,210,2013-10-19 03:00:00
4:30 AM,69.8,66.2,88,29.95,6.2,SSW,11.5,-,N/A,,Mostly Cloudy,200,2013-10-19 03:30:00
5:00 AM,69.8,66.2,88,29.95,6.2,SSW,11.5,-,N/A,,Mostly Cloudy,200,2013-10-19 04:00:00
5:30 AM,69.8,68.0,94,29.98,6.2,SSW,10.4,-,N/A,,Mostly Cloudy,210,2013-10-19 04:30:00
6:00 AM,69.8,68.0,94,29.95,6.2,SSW,10.4,-,N/A,,Mostly Cloudy,210,2013-10-19 05:00:00
6:30 AM,69.8,68.0,94,29.98,6.2,SSW,10.4,-,N/A,,Mostly Cloudy,210,2013-10-19 05:30:00
7:00 AM,70,66,82,29.99,8,SSW,6.7,,,,Partly Cloudy,200,2013-10-19 06:00:00
7:00 AM,69.8,66.2,88,29.98,6.2,SSW,6.9,-,N/A,,Mostly Cloudy,200,2013-10-19 06:00:00
7:30 AM,69.8,68.0,94,29.98,6.2,SSW,8.1,-,N/A,,Mostly Cloudy,210,2013-10-19 06:30:00
8:00 AM,69.8,68.0,94,29.98,6.2,South,9.2,-,N/A,,Scattered Clouds,190,2013-10-19 07:00:00
8:30 AM,71.6,68.0,88,29.98,6.2,South,8.1,-,N/A,,Scattered Clouds,190,2013-10-19 07:30:00
9:00 AM,71.6,68.0,88,29.98,6.2,South,8.1,-,N/A,Rain,Light Rain,190,2013-10-19 08:00:00
9:30 AM,71.6,68.0,88,29.98,6.2,South,10.4,-,N/A,,Mostly Cloudy,180,2013-10-19 08:30:00
10:00 AM,70,66,84,30.03,4,South,8.9,,,,Mostly Cloudy,170,2013-10-19 09:00:00
10:00 AM,69.8,68.0,94,30.01,4.3,South,9.2,-,N/A,Rain,Rain,170,2013-10-19 09:00:00
10:30 AM,69.8,68.0,94,30.01,1.9,South,10.4,-,N/A,Rain,Rain,180,2013-10-19 09:30:00
11:00 AM,68.0,66.2,94,30.01,6.2,SSW,10.4,-,N/A,Rain,Light Rain,200,2013-10-19 10:00:00
11:30 AM,68.0,66.2,94,30.01,6.2,South,9.2,-,N/A,Rain,Light Rain,170,2013-10-19 10:30:00
12:00 PM,68.0,66.2,94,30.01,6.2,South,6.9,-,N/A,,Mostly Cloudy,170,2013-10-19 11:00:00
12:30 PM,69.8,68.0,94,30.01,6.2,South,4.6,-,N/A,Rain,Light Rain,190,2013-10-19 11:30:00
1:00 PM,68,64,84,30.04,9,SSE,11.2,,,Rain,Light Rain,160,2013-10-19 12:00:00
1:00 PM,68.0,66.2,94,30.01,6.2,SSE,11.5,-,N/A,,Mostly Cloudy,160,2013-10-19 12:00:00
1:30 PM,68.0,66.2,94,30.01,6.2,SSW,11.5,-,N/A,Rain,Light Rain,210,2013-10-19 12:30:00
2:00 PM,68.0,66.2,94,30.01,6.2,SW,8.1,-,N/A,,Mostly Cloudy,220,2013-10-19 13:00:00
2:30 PM,68.0,66.2,94,30.01,6.2,WSW,6.9,-,N/A,,Scattered Clouds,240,2013-10-19 13:30:00
3:00 PM,69.8,66.2,88,29.98,6.2,SW,6.9,-,N/A,,Scattered Clouds,230,2013-10-19 14:00:00
3:30 PM,68.0,64.4,88,29.98,6.2,SW,6.9,-,N/A,,Scattered Clouds,230,2013-10-19 14:30:00
4:00 PM,70,64,75,30.01,9,SW,8.9,,,,Mostly Cloudy,230,2013-10-19 15:00:00
4:00 PM,69.8,66.2,88,29.98,6.2,SW,6.9,-,N/A,,Partly Cloudy,220,2013-10-19 15:00:00
4:30 PM,69.8,64.4,83,29.98,6.2,WSW,9.2,-,N/A,,Partly Cloudy,250,2013-10-19 15:30:00
5:00 PM,69.8,64.4,83,29.98,6.2,WSW,12.7,-,N/A,,Partly Cloudy,250,2013-10-19 16:00:00
5:30 PM,69.8,62.6,78,29.98,6.2,West,13.8,-,N/A,,Partly Cloudy,270,2013-10-19 16:30:00
6:00 PM,68.0,64.4,88,30.01,6.2,WSW,12.7,-,N/A,,Partly Cloudy,250,2013-10-19 17:00:00
6:30 PM,69.8,62.6,78,30.01,6.2,West,16.1,-,N/A,,Partly Cloudy,270,2013-10-19 17:30:00
7:00 PM,69,61,68,30.03,9,West,15.7,,,,Partly Cloudy,260,2013-10-19 18:00:00
7:00 PM,68.0,62.6,83,30.01,6.2,West,13.8,-,N/A,,Partly Cloudy,270,2013-10-19 18:00:00
7:30 PM,68.0,62.6,83,30.01,6.2,West,15.0,-,N/A,,Partly Cloudy,270,2013-10-19 18:30:00
8:00 PM,68.0,62.6,83,30.04,6.2,West,15.0,-,N/A,,Partly Cloudy,270,2013-10-19 19:00:00
8:30 PM,68.0,59.0,73,30.04,6.2,West,15.0,-,N/A,,Partly Cloudy,280,2013-10-19 19:30:00
9:00 PM,68.0,60.8,78,30.04,6.2,WNW,11.5,-,N/A,,Partly Cloudy,290,2013-10-19 20:00:00
9:30 PM,68.0,60.8,78,30.06,6.2,WNW,8.1,-,N/A,,Partly Cloudy,300,2013-10-19 20:30:00
10:00 PM,66,58,70,30.09,9,WNW,8.9,,,,Scattered Clouds,300,2013-10-19 21:00:00
10:00 PM,66.2,60.8,83,30.06,6.2,WNW,9.2,-,N/A,,Partly Cloudy,300,2013-10-19 21:00:00
10:30 PM,66.2,60.8,83,30.06,-9999.0,WNW,8.1,-,N/A,,Clear,300,2013-10-19 21:30:00
11:00 PM,64.4,60.8,88,30.06,-9999.0,WNW,4.6,-,N/A,,Clear,300,2013-10-19 22:00:00
11:30 PM,64.4,60.8,88,30.06,-9999.0,WNW,4.6,-,N/A,,Clear,290,2013-10-19 22:30:00